Flag for Russia Weather past 2 weeks in Kaliningrad, Russia

Now
59 °F

Passing clouds.


Feels Like: 60 °F
Forecast: 48 / 70 °F
Wind: 3 mph from East

Location: Kaliningrad/Khrabrovo Airport

Current Time: Sep 3, 2014 at 11:00:58 AM

Latest Report: Sep 3, 2014 at 10:00 AM


Visibility: N/A

Pressure: 30.39 "Hg

Humidity: 82%

Dew point: 54 °F

Location of KaliningradLocation

Historic Weather in Kaliningrad — Graph

°F

Kaliningrad temperature yesterday

Maximum temperature yesterday: 64 °F (at 3:00 PM)
Minimum temperature yesterday: 45 °F (at 6:00 AM)
Average temperature yesterday: 56 °F

Past Weeks' High & Low Weather Summary

 TemperatureHumidityPressure
High70 °F (Aug 23, 3:00 PM)94% (Aug 23, 11:30 PM)30.39 "Hg (Aug 23, 11:30 PM)
Low43 °F (Sep 3, 6:30 AM)35% (Aug 22, 3:30 PM)29.62 "Hg (Aug 27, 6:00 AM)
Average58 °F73%29.92 "Hg
* Reported Aug 19 10:00 AM — Sep 3 10:00 AM, Kaliningrad, Weather by CustomWeather, © 2014

Note: Actual official high and low records may vary slightly from our data, if they occured in-between our weather recording intervals... More about our weather records

Advertising

Kaliningrad weather history for previous 24 hours

 ConditionsComfort  
Time TempWeatherWind HumidityBarometerVisibility
10:00 AM
Sep 3
59 °FPassing clouds.3 mph82%30.39 "HgN/A
9:30 AM55 °FPassing clouds.1 mph88%30.39 "HgN/A
9:00 AM54 °FScattered clouds.No wind88%30.39 "HgN/A
8:30 AM48 °FFog.No wind87%30.39 "Hg3 mi
8:00 AM45 °FFog.No wind87%30.39 "Hg1 mi
7:30 AM43 °FFog.No wind93%30.36 "Hg1 mi
7:00 AM43 °FFog.No wind93%30.36 "Hg1 mi
6:30 AM43 °FFog.No wind93%30.36 "Hg0 mi
6:00 AM45 °FFog.1 mph87%30.36 "Hg1 mi
5:30 AM45 °FFog.No wind87%30.36 "Hg2 mi
5:00 AM45 °FFog.No wind87%30.36 "Hg1 mi
4:30 AM45 °FFog.No wind93%30.33 "Hg1 mi
4:00 AM46 °FFog.No wind87%30.33 "Hg4 mi
3:30 AM48 °FFog.1 mph87%30.33 "Hg4 mi
3:00 AM48 °FFog.No wind87%30.33 "Hg4 mi
2:30 AM48 °FFog.1 mph87%30.33 "Hg5 mi
2:00 AM50 °FClear.1 mph88%30.33 "Hg5 mi
1:30 AM48 °FFog.1 mph87%30.33 "Hg5 mi
1:00 AM50 °FClear.1 mph88%30.33 "Hg5 mi
12:30 AM50 °FClear.3 mph88%30.33 "Hg5 mi
12:00 AM50 °FFog.1 mph88%30.33 "Hg5 mi
11:30 PM
Sep 2
52 °FClear.1 mph82%30.30 "Hg10 mi
11:00 PM52 °FClear.1 mph82%30.30 "Hg10 mi
10:30 PM54 °FClear.1 mph77%30.30 "Hg10 mi
10:00 PM55 °FScattered clouds.6 mph77%30.30 "HgN/A
9:30 PM57 °FScattered clouds.6 mph82%30.27 "HgN/A
9:00 PM61 °FPartly sunny.3 mph77%30.27 "HgN/A
8:30 PM61 °FPartly sunny.3 mph72%30.27 "HgN/A
8:00 PM61 °FPartly sunny.6 mph72%30.24 "HgN/A
7:30 PM63 °FBroken clouds.6 mph68%30.24 "HgN/A
7:00 PM63 °FBroken clouds.8 mph68%30.24 "HgN/A
6:30 PM63 °FBroken clouds.8 mph64%30.24 "HgN/A
6:00 PM63 °FBroken clouds.8 mph64%30.24 "HgN/A
5:30 PM64 °FBroken clouds.6 mph64%30.24 "HgN/A
5:00 PM64 °FBroken clouds.10 mph60%30.24 "HgN/A
4:30 PM64 °FBroken clouds.13 mph60%30.24 "HgN/A
4:00 PM64 °FBroken clouds.10 mph60%30.24 "HgN/A
3:30 PM64 °FBroken clouds.13 mph56%30.24 "HgN/A
3:00 PM64 °FBroken clouds.10 mph64%30.24 "HgN/A
2:30 PM63 °FBroken clouds.13 mph64%30.24 "HgN/A
2:00 PM63 °FBroken clouds.10 mph64%30.24 "HgN/A
1:30 PM61 °FBroken clouds.8 mph68%30.24 "HgN/A
1:00 PM61 °FBroken clouds.10 mph68%30.24 "HgN/A
12:30 PM63 °FBroken clouds.8 mph68%30.24 "HgN/A
12:00 PM61 °FBroken clouds.8 mph68%30.21 "HgN/A
11:30 AM59 °FBroken clouds.8 mph72%30.21 "HgN/A
11:00 AM61 °FBroken clouds.6 mph72%30.21 "HgN/A
Weather by CustomWeather, © 2014

See weather overviewHow to use our weather pages